<?xml version="1.0" encoding="UTF-8" standalone="no" ?>
<gpx xmlns="http://www.topografix.com/GPX/1/1" xmlns:xsi="http://www.w3.org/2001/XMLSchema-instance" xsi:schemaLocation="http://www.topografix.com/GPX/1/1 http://www.topografix.com/GPX/1/1/gpx.xsd" version="1.1" creator="VisuGPX - https://www.visugpx.com">
  <metadata>
    <name>GITER Poitou Charentes : boucle 86</name>
    <desc><![CDATA[Partie en Vienne de la Boucle centrale
[url]http://cdte86.free.fr/spip.php?article137[/url]]]></desc>
  </metadata>
  <trk>
    <name><![CDATA[Trk014]]></name>
    <trkseg>
      <trkpt lat="46.06796" lon="0.68084">
        <ele>127</ele>
        <time>2007-04-22T21:46:55Z</time>
      </trkpt>
      <trkpt lat="46.06868" lon="0.68043">
        <ele>129</ele>
        <time>2007-04-22T21:46:55Z</time>
      </trkpt>
      <trkpt lat="46.07008" lon="0.68071">
        <ele>127</ele>
        <time>2007-04-22T21:46:55Z</time>
      </trkpt>
      <trkpt lat="46.07019" lon="0.67961">
        <ele>129</ele>
        <time>2007-04-22T21:46:55Z</time>
      </trkpt>
      <trkpt lat="46.07127" lon="0.67906">
        <ele>132</ele>
        <time>2007-04-22T21:46:55Z</time>
      </trkpt>
      <trkpt lat="46.07133" lon="0.67738">
        <ele>140</ele>
        <time>2007-04-22T21:46:55Z</time>
      </trkpt>
      <trkpt lat="46.07369" lon="0.67847">
        <ele>135</ele>
        <time>2007-04-22T21:46:55Z</time>
      </trkpt>
      <trkpt lat="46.07543" lon="0.68042">
        <ele>129</ele>
        <time>2007-04-22T21:46:55Z</time>
      </trkpt>
      <trkpt lat="46.07627" lon="0.67956">
        <ele>137</ele>
        <time>2007-04-22T21:46:55Z</time>
      </trkpt>
      <trkpt lat="46.07716" lon="0.67888">
        <ele>139</ele>
        <time>2007-04-22T21:46:55Z</time>
      </trkpt>
      <trkpt lat="46.07855" lon="0.67897">
        <ele>137</ele>
        <time>2007-04-22T21:46:55Z</time>
      </trkpt>
      <trkpt lat="46.08007" lon="0.67808">
        <ele>140</ele>
        <time>2007-04-22T21:46:55Z</time>
      </trkpt>
      <trkpt lat="46.08429" lon="0.68041">
        <ele>139</ele>
        <time>2007-04-22T21:46:55Z</time>
      </trkpt>
      <trkpt lat="46.08682" lon="0.68098">
        <ele>142</ele>
        <time>2007-04-22T21:46:55Z</time>
      </trkpt>
      <trkpt lat="46.08819" lon="0.67622">
        <ele>154</ele>
        <time>2007-04-22T21:46:55Z</time>
      </trkpt>
      <trkpt lat="46.09054" lon="0.67705">
        <ele>155</ele>
        <time>2007-04-22T21:46:55Z</time>
      </trkpt>
      <trkpt lat="46.09321" lon="0.67801">
        <ele>143</ele>
        <time>2007-04-22T21:46:55Z</time>
      </trkpt>
      <trkpt lat="46.09556" lon="0.67891">
        <ele>162</ele>
        <time>2007-04-22T21:46:55Z</time>
      </trkpt>
      <trkpt lat="46.09727" lon="0.67898">
        <ele>165</ele>
        <time>2007-04-22T21:46:55Z</time>
      </trkpt>
      <trkpt lat="46.10032" lon="0.67799">
        <ele>157</ele>
        <time>2007-04-22T21:46:55Z</time>
      </trkpt>
      <trkpt lat="46.10426" lon="0.67664">
        <ele>154</ele>
        <time>2007-04-22T21:46:55Z</time>
      </trkpt>
      <trkpt lat="46.10523" lon="0.6757">
        <ele>155</ele>
        <time>2007-04-22T21:46:55Z</time>
      </trkpt>
      <trkpt lat="46.10955" lon="0.66975">
        <ele>143</ele>
        <time>2007-04-22T21:46:55Z</time>
      </trkpt>
      <trkpt lat="46.11071" lon="0.66887">
        <ele>139</ele>
        <time>2007-04-22T21:46:55Z</time>
      </trkpt>
      <trkpt lat="46.11281" lon="0.66751">
        <ele>139</ele>
        <time>2007-04-22T21:46:55Z</time>
      </trkpt>
      <trkpt lat="46.11325" lon="0.6644">
        <ele>144</ele>
        <time>2007-04-22T21:46:55Z</time>
      </trkpt>
      <trkpt lat="46.11344" lon="0.66193">
        <ele>140</ele>
        <time>2007-04-22T21:46:55Z</time>
      </trkpt>
      <trkpt lat="46.11485" lon="0.65949">
        <ele>146</ele>
        <time>2007-04-22T21:46:55Z</time>
      </trkpt>
      <trkpt lat="46.11627" lon="0.65816">
        <ele>146</ele>
        <time>2007-04-22T21:46:55Z</time>
      </trkpt>
      <trkpt lat="46.1167" lon="0.65672">
        <ele>148</ele>
        <time>2007-04-22T21:46:55Z</time>
      </trkpt>
      <trkpt lat="46.11751" lon="0.65721">
        <ele>145</ele>
        <time>2007-04-22T21:46:55Z</time>
      </trkpt>
      <trkpt lat="46.11907" lon="0.65904">
        <ele>133</ele>
        <time>2007-04-22T21:46:55Z</time>
      </trkpt>
      <trkpt lat="46.11994" lon="0.66018">
        <ele>123</ele>
        <time>2007-04-22T21:46:55Z</time>
      </trkpt>
      <trkpt lat="46.12047" lon="0.65926">
        <ele>123</ele>
        <time>2007-04-22T21:46:55Z</time>
      </trkpt>
      <trkpt lat="46.12195" lon="0.6618">
        <ele>123</ele>
        <time>2007-04-22T21:46:55Z</time>
      </trkpt>
      <trkpt lat="46.12278" lon="0.66067">
        <ele>124</ele>
        <time>2007-04-22T21:46:55Z</time>
      </trkpt>
      <trkpt lat="46.12471" lon="0.66288">
        <ele>136</ele>
        <time>2007-04-22T21:46:55Z</time>
      </trkpt>
      <trkpt lat="46.12598" lon="0.66368">
        <ele>153</ele>
        <time>2007-04-22T21:46:55Z</time>
      </trkpt>
      <trkpt lat="46.12691" lon="0.66301">
        <ele>156</ele>
        <time>2007-04-22T21:46:55Z</time>
      </trkpt>
      <trkpt lat="46.12685" lon="0.66482">
        <ele>170</ele>
        <time>2007-04-22T21:46:55Z</time>
      </trkpt>
      <trkpt lat="46.12781" lon="0.66609">
        <ele>188</ele>
        <time>2007-04-22T21:46:55Z</time>
      </trkpt>
      <trkpt lat="46.12848" lon="0.66859">
        <ele>204</ele>
        <time>2007-04-22T21:46:55Z</time>
      </trkpt>
      <trkpt lat="46.13022" lon="0.66789">
        <ele>202</ele>
        <time>2007-04-22T21:46:55Z</time>
      </trkpt>
      <trkpt lat="46.13172" lon="0.66855">
        <ele>202</ele>
        <time>2007-04-22T21:46:55Z</time>
      </trkpt>
      <trkpt lat="46.13258" lon="0.66911">
        <ele>205</ele>
        <time>2007-04-22T21:46:55Z</time>
      </trkpt>
      <trkpt lat="46.13276" lon="0.67176">
        <ele>206</ele>
        <time>2007-04-22T21:46:55Z</time>
      </trkpt>
      <trkpt lat="46.13346" lon="0.67361">
        <ele>199</ele>
        <time>2007-04-22T21:46:55Z</time>
      </trkpt>
      <trkpt lat="46.13318" lon="0.67608">
        <ele>193</ele>
        <time>2007-04-22T21:46:55Z</time>
      </trkpt>
      <trkpt lat="46.137" lon="0.67875">
        <ele>195</ele>
        <time>2007-04-22T21:46:55Z</time>
      </trkpt>
      <trkpt lat="46.13997" lon="0.67911">
        <ele>199</ele>
        <time>2007-04-22T21:46:55Z</time>
      </trkpt>
      <trkpt lat="46.14115" lon="0.67946">
        <ele>190</ele>
        <time>2007-04-22T21:46:55Z</time>
      </trkpt>
      <trkpt lat="46.14152" lon="0.67997">
        <ele>196</ele>
        <time>2007-04-22T21:46:55Z</time>
      </trkpt>
      <trkpt lat="46.14214" lon="0.67989">
        <ele>200</ele>
        <time>2007-04-22T21:46:55Z</time>
      </trkpt>
      <trkpt lat="46.14354" lon="0.68017">
        <ele>206</ele>
        <time>2007-04-22T21:46:55Z</time>
      </trkpt>
      <trkpt lat="46.14544" lon="0.68063">
        <ele>204</ele>
        <time>2007-04-22T21:46:55Z</time>
      </trkpt>
      <trkpt lat="46.14687" lon="0.68272">
        <ele>202</ele>
        <time>2007-04-22T21:46:55Z</time>
      </trkpt>
      <trkpt lat="46.14716" lon="0.68465">
        <ele>201</ele>
        <time>2007-04-22T21:46:55Z</time>
      </trkpt>
      <trkpt lat="46.14716" lon="0.68446">
        <ele>201</ele>
        <time>2007-04-22T21:46:55Z</time>
      </trkpt>
      <trkpt lat="46.14867" lon="0.68577">
        <ele>201</ele>
        <time>2007-04-22T21:46:55Z</time>
      </trkpt>
      <trkpt lat="46.15079" lon="0.68616">
        <ele>193</ele>
        <time>2007-04-22T21:46:55Z</time>
      </trkpt>
      <trkpt lat="46.15236" lon="0.68618">
        <ele>192</ele>
        <time>2007-04-22T21:46:55Z</time>
      </trkpt>
      <trkpt lat="46.15548" lon="0.68712">
        <ele>183</ele>
        <time>2007-04-22T21:46:55Z</time>
      </trkpt>
      <trkpt lat="46.15651" lon="0.6869">
        <ele>170</ele>
        <time>2007-04-22T21:46:55Z</time>
      </trkpt>
      <trkpt lat="46.15829" lon="0.68853">
        <ele>139</ele>
        <time>2007-04-22T21:46:55Z</time>
      </trkpt>
      <trkpt lat="46.15865" lon="0.68871">
        <ele>147</ele>
        <time>2007-04-22T21:46:55Z</time>
      </trkpt>
      <trkpt lat="46.15872" lon="0.69013">
        <ele>157</ele>
        <time>2007-04-22T21:46:55Z</time>
      </trkpt>
      <trkpt lat="46.16055" lon="0.68911">
        <ele>188</ele>
        <time>2007-04-22T21:46:55Z</time>
      </trkpt>
      <trkpt lat="46.16208" lon="0.68945">
        <ele>191</ele>
        <time>2007-04-22T21:46:55Z</time>
      </trkpt>
      <trkpt lat="46.16295" lon="0.69007">
        <ele>194</ele>
        <time>2007-04-22T21:46:55Z</time>
      </trkpt>
      <trkpt lat="46.16452" lon="0.68996">
        <ele>197</ele>
        <time>2007-04-22T21:46:55Z</time>
      </trkpt>
      <trkpt lat="46.16534" lon="0.69045">
        <ele>199</ele>
        <time>2007-04-22T21:46:55Z</time>
      </trkpt>
      <trkpt lat="46.16696" lon="0.68755">
        <ele>200</ele>
        <time>2007-04-22T21:46:55Z</time>
      </trkpt>
      <trkpt lat="46.1677" lon="0.68591">
        <ele>196</ele>
        <time>2007-04-22T21:46:55Z</time>
      </trkpt>
      <trkpt lat="46.16751" lon="0.68501">
        <ele>195</ele>
        <time>2007-04-22T21:46:55Z</time>
      </trkpt>
      <trkpt lat="46.16713" lon="0.68379">
        <ele>194</ele>
        <time>2007-04-22T21:46:55Z</time>
      </trkpt>
      <trkpt lat="46.16732" lon="0.68178">
        <ele>185</ele>
        <time>2007-04-22T21:46:55Z</time>
      </trkpt>
      <trkpt lat="46.16698" lon="0.67972">
        <ele>182</ele>
        <time>2007-04-22T21:46:55Z</time>
      </trkpt>
      <trkpt lat="46.16632" lon="0.67779">
        <ele>167</ele>
        <time>2007-04-22T21:46:55Z</time>
      </trkpt>
      <trkpt lat="46.16611" lon="0.67553">
        <ele>146</ele>
        <time>2007-04-22T21:46:55Z</time>
      </trkpt>
      <trkpt lat="46.16623" lon="0.67488">
        <ele>141</ele>
        <time>2007-04-22T21:46:55Z</time>
      </trkpt>
      <trkpt lat="46.16608" lon="0.67392">
        <ele>133</ele>
        <time>2007-04-22T21:46:55Z</time>
      </trkpt>
      <trkpt lat="46.1668" lon="0.6737">
        <ele>128</ele>
        <time>2007-04-22T21:46:55Z</time>
      </trkpt>
      <trkpt lat="46.16784" lon="0.67412">
        <ele>132</ele>
        <time>2007-04-22T21:46:55Z</time>
      </trkpt>
      <trkpt lat="46.16856" lon="0.67429">
        <ele>125</ele>
        <time>2007-04-22T21:46:55Z</time>
      </trkpt>
      <trkpt lat="46.16924" lon="0.6744">
        <ele>131</ele>
        <time>2007-04-22T21:46:55Z</time>
      </trkpt>
      <trkpt lat="46.16977" lon="0.67354">
        <ele>125</ele>
        <time>2007-04-22T21:46:55Z</time>
      </trkpt>
      <trkpt lat="46.17004" lon="0.67341">
        <ele>123</ele>
        <time>2007-04-22T21:46:55Z</time>
      </trkpt>
      <trkpt lat="46.1721" lon="0.67328">
        <ele>122</ele>
        <time>2007-04-22T21:46:55Z</time>
      </trkpt>
      <trkpt lat="46.17326" lon="0.67247">
        <ele>117</ele>
        <time>2007-04-22T21:46:55Z</time>
      </trkpt>
      <trkpt lat="46.17462" lon="0.67327">
        <ele>133</ele>
        <time>2007-04-22T21:46:55Z</time>
      </trkpt>
      <trkpt lat="46.1753" lon="0.67344">
        <ele>138</ele>
        <time>2007-04-22T21:46:55Z</time>
      </trkpt>
      <trkpt lat="46.17559" lon="0.67453">
        <ele>150</ele>
        <time>2007-04-22T21:46:55Z</time>
      </trkpt>
      <trkpt lat="46.1766" lon="0.67573">
        <ele>160</ele>
        <time>2007-04-22T21:46:55Z</time>
      </trkpt>
      <trkpt lat="46.17754" lon="0.67564">
        <ele>170</ele>
        <time>2007-04-22T21:46:55Z</time>
      </trkpt>
      <trkpt lat="46.17899" lon="0.67618">
        <ele>177</ele>
        <time>2007-04-22T21:46:55Z</time>
      </trkpt>
      <trkpt lat="46.18135" lon="0.68071">
        <ele>186</ele>
        <time>2007-04-22T21:46:55Z</time>
      </trkpt>
      <trkpt lat="46.18451" lon="0.6845">
        <ele>172</ele>
        <time>2007-04-22T21:46:55Z</time>
      </trkpt>
      <trkpt lat="46.18603" lon="0.68432">
        <ele>184</ele>
        <time>2007-04-22T21:46:55Z</time>
      </trkpt>
      <trkpt lat="46.1887" lon="0.68528">
        <ele>186</ele>
        <time>2007-04-22T21:46:55Z</time>
      </trkpt>
      <trkpt lat="46.18911" lon="0.68565">
        <ele>186</ele>
        <time>2007-04-22T21:46:55Z</time>
      </trkpt>
      <trkpt lat="46.18861" lon="0.68819">
        <ele>191</ele>
        <time>2007-04-22T21:46:55Z</time>
      </trkpt>
      <trkpt lat="46.18735" lon="0.68843">
        <ele>190</ele>
        <time>2007-04-22T21:46:55Z</time>
      </trkpt>
      <trkpt lat="46.18686" lon="0.69136">
        <ele>193</ele>
        <time>2007-04-22T21:46:55Z</time>
      </trkpt>
      <trkpt lat="46.18864" lon="0.69318">
        <ele>193</ele>
        <time>2007-04-22T21:46:55Z</time>
      </trkpt>
      <trkpt lat="46.18551" lon="0.69788">
        <ele>202</ele>
        <time>2007-04-22T21:46:55Z</time>
      </trkpt>
      <trkpt lat="46.18245" lon="0.70419">
        <ele>203</ele>
        <time>2007-04-22T21:46:55Z</time>
      </trkpt>
      <trkpt lat="46.18088" lon="0.71065">
        <ele>207</ele>
        <time>2007-04-22T21:46:55Z</time>
      </trkpt>
      <trkpt lat="46.18734" lon="0.71525">
        <ele>201</ele>
        <time>2007-04-22T21:46:55Z</time>
      </trkpt>
      <trkpt lat="46.18795" lon="0.72637">
        <ele>197</ele>
        <time>2007-04-22T21:46:55Z</time>
      </trkpt>
      <trkpt lat="46.19159" lon="0.73255">
        <ele>203</ele>
        <time>2007-04-22T21:46:55Z</time>
      </trkpt>
      <trkpt lat="46.19263" lon="0.73291">
        <ele>200</ele>
        <time>2007-04-22T21:46:55Z</time>
      </trkpt>
      <trkpt lat="46.194" lon="0.73442">
        <ele>200</ele>
        <time>2007-04-22T21:46:55Z</time>
      </trkpt>
      <trkpt lat="46.1947" lon="0.73298">
        <ele>199</ele>
        <time>2007-04-22T21:46:55Z</time>
      </trkpt>
      <trkpt lat="46.19528" lon="0.73263">
        <ele>198</ele>
        <time>2007-04-22T21:46:55Z</time>
      </trkpt>
      <trkpt lat="46.19605" lon="0.73287">
        <ele>197</ele>
        <time>2007-04-22T21:46:55Z</time>
      </trkpt>
      <trkpt lat="46.1974" lon="0.73659">
        <ele>193</ele>
        <time>2007-04-22T21:46:55Z</time>
      </trkpt>
      <trkpt lat="46.19727" lon="0.7364">
        <ele>193</ele>
        <time>2007-04-22T21:46:55Z</time>
      </trkpt>
      <trkpt lat="46.20079" lon="0.73435">
        <ele>200</ele>
        <time>2007-04-22T21:46:55Z</time>
      </trkpt>
      <trkpt lat="46.20422" lon="0.73146">
        <ele>197</ele>
        <time>2007-04-22T21:46:55Z</time>
      </trkpt>
      <trkpt lat="46.20918" lon="0.72944">
        <ele>194</ele>
        <time>2007-04-22T21:46:55Z</time>
      </trkpt>
      <trkpt lat="46.21125" lon="0.72938">
        <ele>192</ele>
        <time>2007-04-22T21:46:55Z</time>
      </trkpt>
      <trkpt lat="46.21354" lon="0.72886">
        <ele>190</ele>
        <time>2007-04-22T21:46:55Z</time>
      </trkpt>
      <trkpt lat="46.21478" lon="0.7307">
        <ele>192</ele>
        <time>2007-04-22T21:46:55Z</time>
      </trkpt>
      <trkpt lat="46.21459" lon="0.73297">
        <ele>193</ele>
        <time>2007-04-22T21:46:55Z</time>
      </trkpt>
      <trkpt lat="46.21691" lon="0.74127">
        <ele>173</ele>
        <time>2007-04-22T21:46:55Z</time>
      </trkpt>
      <trkpt lat="46.21711" lon="0.74288">
        <ele>167</ele>
        <time>2007-04-22T21:46:55Z</time>
      </trkpt>
      <trkpt lat="46.2165" lon="0.74452">
        <ele>161</ele>
        <time>2007-04-22T21:46:55Z</time>
      </trkpt>
      <trkpt lat="46.21571" lon="0.74539">
        <ele>151</ele>
        <time>2007-04-22T21:46:55Z</time>
      </trkpt>
      <trkpt lat="46.21449" lon="0.74555">
        <ele>152</ele>
        <time>2007-04-22T21:46:55Z</time>
      </trkpt>
      <trkpt lat="46.2126" lon="0.74846">
        <ele>174</ele>
        <time>2007-04-22T21:46:55Z</time>
      </trkpt>
    </trkseg>
  </trk>
</gpx>